GW6759 Weather Reports


time (UTC)temp
F
wind
direction
speed
knots
gust
knots
rain 1hr
in
rain 24hr
in
rain mn
in
humidity
%
barometer
mb
20260508045245 54 72 0.0 0.0 0.00 0.00 0.00 97 1014.3
20260508044742 54 50 0.0 0.0 0.00 0.00 0.00 97 1014.2
20260508044239 54 50 0.0 0.0 0.00 0.00 0.00 97 1014.4
20260508043735 54 117 0.0 0.0 0.00 0.00 0.00 97 1014.2
20260508043233 54 117 0.0 0.0 0.00 0.00 0.00 97 1014.4
20260508042729 54 117 0.0 0.0 0.00 0.00 0.00 97 1014.2
20260508042227 54 117 0.0 0.0 0.00 0.00 0.00 97 1014.4
20260508041723 54 117 0.0 0.0 0.00 0.00 0.00 97 1014.2
20260508041220 54 117 0.0 0.0 0.00 0.00 0.00 97 1014.3
20260508040716 54 117 0.0 0.0 0.00 0.00 0.00 97 1014.1
20260508040214 54 117 0.0 0.0 0.00 0.00 0.00 97 1014.1
20260508035711 54 117 0.0 0.0 0.00 0.50 0.50 97 1014.3
20260508035208 54 117 0.0 0.0 0.00 0.50 0.50 97 1014.3
20260508034704 54 117 0.0 0.0 0.00 0.50 0.50 97 1014.0
20260508034202 54 117 0.0 0.0 0.00 0.50 0.50 97 1013.9
20260508033659 54 117 0.0 0.0 0.00 0.50 0.50 97 1013.8
20260508033157 54 117 0.0 0.0 0.00 0.50 0.50 97 1013.5
20260508032654 54 117 0.0 0.0 0.00 0.50 0.50 97 1013.5
20260508032151 54 117 0.0 0.0 0.00 0.50 0.50 97 1013.4
20260508031648 54 117 0.0 0.0 0.00 0.50 0.50 97 1013.6
20260508031144 54 117 0.0 0.0 0.00 0.50 0.50 97 1013.7
20260508030641 54 117 0.0 0.0 0.00 0.50 0.50 97 1013.6
20260508030139 54 117 0.0 0.0 0.00 0.50 0.50 97 1013.6
20260508025635 54 117 0.0 0.0 0.00 0.50 0.50 97 1013.5
20260508025132 54 117 0.0 0.0 0.00 0.50 0.50 97 1013.5
20260508024627 54 117 0.0 0.0 0.00 0.50 0.50 97 1013.3
20260508024125 54 117 0.0 0.0 0.00 0.50 0.50 97 1013.3
20260508023621 54 117 0.0 0.0 0.00 0.50 0.50 97 1013.2
20260508023119 54 117 0.0 0.0 0.00 0.50 0.50 96 1013.3
20260508022614 54 117 0.0 0.0 0.00 0.50 0.50 96 1013.2
20260508022112 54 117 0.0 0.0 0.00 0.50 0.50 96 1013.3
20260508021607 54 117 0.0 0.0 0.00 0.50 0.50 96 1013.0
20260508021104 54 116 0.0 0.9 0.00 0.50 0.50 96 1013.1
20260508020601 54 118 0.0 0.0 0.00 0.50 0.50 96 1013.1
20260508020059 54 118 0.0 0.0 0.00 0.50 0.50 96 1013.0
20260508015556 54 117 0.0 0.0 0.00 0.50 0.50 96 1013.1
20260508015053 54 118 0.0 0.0 0.00 0.50 0.50 96 1013.1
20260508014549 54 118 0.0 0.0 0.00 0.50 0.50 96 1012.9
20260508014045 54 118 0.0 0.0 0.00 0.50 0.50 96 1012.8
20260508013542 54 118 0.0 0.0 0.00 0.50 0.50 95 1012.6
20260508013039 54 118 0.0 0.0 0.00 0.50 0.50 95 1012.2
20260508012536 54 99 0.0 0.0 0.00 0.50 0.50 95 1012.1
20260508012034 54 109 0.0 0.0 0.00 0.50 0.50 95 1012.0
20260508011532 54 38 0.0 0.9 0.00 0.50 0.50 95 1011.9
20260508011029 54 54 1.7 1.7 0.00 0.50 0.50 94 1011.9
20260508010525 55 30 0.0 0.9 0.00 0.50 0.50 94 1012.2
20260508010023 55 55 0.0 0.0 0.00 0.50 0.50 94 1012.3
20260508005519 55 64 0.0 0.0 0.00 0.50 0.50 93 1012.4
20260508005016 55 78 0.0 0.0 0.00 0.50 0.50 93 1012.5
20260508004513 55 79 0.0 0.9 0.00 0.50 0.50 93 1012.3
20260508004009 55 107 0.0 0.0 0.00 0.50 0.50 93 1012.1
20260508003506 55 52 0.0 0.0 0.00 0.50 0.50 93 1011.8
20260508003003 55 111 0.0 0.0 0.00 0.50 0.50 92 1011.7
20260508002459 55 122 0.0 0.9 0.00 0.50 0.50 93 1011.8
20260508001956 55 42 0.0 0.0 0.00 0.50 0.50 93 1012.1
20260508001452 55 59 0.0 0.9 0.00 0.50 0.50 93 1011.8
20260508000949 55 100 0.0 0.0 0.00 0.50 0.50 93 1011.8
20260508000444 55 65 0.0 0.0 0.00 0.50 0.50 94 1012.0
20260507235941 55 84 0.0 0.0 0.00 0.50 0.50 94 1011.4
20260507235438 55 123 0.9 0.9 0.00 0.50 0.50 94 1011.2
20260507234936 55 23 0.9 0.9 0.00 0.50 0.50 93 1011.1
20260507234432 55 59 0.0 0.0 0.00 0.50 0.50 94 1011.1
20260507233929 55 31 0.9 1.7 0.00 0.50 0.50 93 1011.2
20260507233426 55 54 0.0 0.0 0.00 0.50 0.50 93 1011.0
20260507232925 55 129 0.0 0.0 0.00 0.50 0.50 93 1011.2
20260507232420 55 36 0.9 0.9 0.00 0.50 0.50 92 1010.9
20260507231918 55 60 0.9 1.7 0.00 0.50 0.50 93 1010.8
20260507231414 55 140 0.9 0.9 0.00 0.50 0.50 93 1010.9
20260507230911 55 40 0.9 0.9 0.00 0.50 0.50 93 1011.0
20260507230408 55 32 1.7 3.5 0.00 0.50 0.50 93 1011.1
20260507225908 55 5 2.6 3.5 0.00 0.50 0.50 93 1011.0
20260507225404 55 46 1.7 2.6 0.00 0.50 0.50 93 1011.0
20260507224901 55 6 0.0 0.9 0.00 0.50 0.50 93 1011.0
20260507224357 55 51 0.0 0.0 0.00 0.50 0.50 93 1010.7
20260507223853 55 1 0.9 0.9 0.00 0.50 0.50 93 1010.6
20260507223350 55 39 1.7 1.7 0.00 0.50 0.50 93 1010.8
20260507222847 55 35 1.7 2.6 0.00 0.50 0.50 92 1010.5
20260507222343 55 52 0.9 0.9 0.00 0.50 0.50 93 1010.6
20260507221840 55 38 0.9 0.9 0.00 0.50 0.50 93 1010.4
20260507221337 55 21 0.9 0.9 0.00 0.50 0.50 93 1010.7
20260507220832 55 27 1.7 1.7 0.00 0.50 0.50 93 1010.3
20260507220331 55 27 0.9 1.7 0.00 0.50 0.50 93 1010.7
20260507215827 55 21 2.6 5.2 0.00 0.50 0.50 94 1010.9
20260507215325 55 61 0.9 0.9 0.00 0.50 0.50 94 1011.1
20260507214821 55 74 0.0 0.0 0.00 0.50 0.50 94 1010.5
20260507214314 55 103 0.0 0.0 0.00 0.50 0.50 94 1010.8
20260507213813 55 46 1.7 2.6 0.00 0.50 0.50 93 1010.7
20260507213311 55 68 0.0 0.0 0.00 0.50 0.50 93 1010.5
20260507212808 55 75 0.0 0.0 0.00 0.50 0.50 93 1010.7
20260507212306 55 121 0.9 0.9 0.00 0.50 0.50 93 1010.7
20260507211800 55 24 1.7 2.6 0.00 0.50 0.50 93 1010.4
20260507211257 55 19 1.7 1.7 0.00 0.50 0.50 92 1010.6
20260507210753 55 29 3.5 5.2 0.00 0.50 0.50 92 1010.5
20260507210250 55 43 0.9 1.7 0.00 0.50 0.50 92 1010.3
20260507205747 55 354 1.7 2.6 0.00 0.50 0.50 92 1010.4
20260507205244 55 43 1.7 1.7 0.00 0.50 0.50 93 1009.9
20260507204740 55 83 1.7 2.6 0.00 0.50 0.50 94 1010.1
20260507204238 55 123 1.7 3.5 0.00 0.50 0.50 94 1010.1
20260507203735 56 45 1.7 2.6 0.00 0.50 0.50 94 1010.2
20260507203233 56 30 0.0 0.9 0.00 0.50 0.50 94 1010.1
20260507202729 56 13 1.7 3.5 0.00 0.50 0.50 95 1010.0
20260507202225 56 31 1.7 3.5 0.00 0.50 0.50 96 1009.8
20260507201720 57 57 0.9 0.9 0.00 0.50 0.50 96 1009.8
20260507201218 57 70 0.0 0.9 0.00 0.50 0.50 96 1009.8
20260507200714 57 11 0.9 1.7 0.00 0.50 0.50 96 1009.6
20260507200210 57 35 1.7 1.7 0.00 0.50 0.50 96 1009.8
20260507195706 57 108 0.0 0.9 0.00 0.50 0.50 95 1009.9
20260507195203 57 1 1.7 1.7 0.00 0.50 0.50 96 1010.1
20260507194700 57 41 0.0 0.9 0.00 0.50 0.50 96 1009.9
20260507194156 57 23 2.6 3.5 0.00 0.50 0.50 96 1009.7
20260507193653 57 33 1.7 2.6 0.00 0.50 0.50 96 1009.6
20260507193150 57 107 0.0 0.9 0.00 0.50 0.50 96 1009.7
20260507192646 57 8 1.7 2.6 0.00 0.50 0.50 96 1009.9
20260507192143 57 31 0.9 1.7 0.00 0.50 0.50 96 1009.9
20260507191638 57 38 0.9 1.7 0.00 0.50 0.50 96 1009.9
20260507191136 57 46 0.9 0.9 0.00 0.50 0.50 96 1009.9
20260507190633 57 37 0.9 0.9 0.07 0.50 0.50 97 1010.2
20260507190132 57 121 0.0 0.9 0.07 0.50 0.50 97 1010.3
20260507185630 57 69 0.0 0.9 0.00 0.49 0.49 97 1009.8
20260507185126 57 79 0.0 0.9 0.00 0.49 0.49 97 1009.8
20260507184624 58 47 0.9 0.9 0.00 0.49 0.49 97 1009.4
20260507184122 58 122 0.9 2.6 0.00 0.49 0.49 97 1009.2
20260507183618 58 77 0.0 0.0 0.00 0.49 0.49 97 1009.8
20260507183115 59 58 0.9 1.7 0.00 0.49 0.49 96 1010.2
20260507182611 59 75 0.0 0.9 0.00 0.49 0.49 96 1010.0
20260507182107 59 102 0.0 0.9 0.00 0.49 0.49 96 1009.9
20260507181604 59 26 0.9 0.9 0.00 0.49 0.49 96 1009.4
20260507181101 59 56 0.0 0.9 0.00 0.49 0.49 97 1009.2
20260507180558 60 124 0.0 0.9 0.00 0.49 0.49 97 1009.2
20260507180054 59 135 0.0 0.9 0.00 0.49 0.49 97 1009.4
20260507175550 59 19 1.7 2.6 0.00 0.49 0.49 96 1009.2
20260507175048 59 20 2.6 2.6 0.00 0.49 0.49 96 1009.6
20260507174544 59 80 0.0 0.9 0.00 0.49 0.49 96 1009.8
20260507174042 61 67 0.0 0.9 0.00 0.49 0.49 96 1010.4
20260507173539 61 41 0.9 1.7 0.00 0.49 0.49 95 1009.6
20260507173036 63 33 0.9 0.9 0.00 0.49 0.49 95 1009.9
20260507172532 67 104 0.9 0.9 0.00 0.49 0.49 94 1009.4
20260507172029 67 86 0.0 0.0 0.00 0.49 0.49 95 1008.6
20260507171525 68 88 0.0 0.0 0.00 0.49 0.49 95 1008.7
20260507171022 70 112 0.0 0.0 0.00 0.49 0.49 95 1008.6
20260507170518 69 60 0.0 0.9 0.00 0.49 0.49 94 1008.2
20260507170015 70 121 0.0 0.0 0.00 0.49 0.49 95 1008.6
20260507165511 70 82 0.0 0.0 0.00 0.49 0.49 95 1008.5
20260507165008 69 82 0.0 0.0 0.07 0.49 0.49 95 1008.6
20260507164504 69 52 0.0 0.0 0.07 0.49 0.49 96 1008.7
20260507164001 68 70 0.0 0.0 0.00 0.48 0.48 96 1008.8
20260507163458 69 99 0.0 0.0 0.00 0.48 0.48 97 1009.0
20260507162955 69 96 0.0 0.0 0.00 0.48 0.48 97 1009.5
20260507162451 69 160 0.0 0.0 0.00 0.48 0.48 97 1009.7
20260507161948 69 131 0.0 0.0 0.00 0.48 0.48 98 1009.8
20260507161444 69 158 0.0 0.0 0.05 0.48 0.48 98 1010.0
20260507160941 69 143 0.0 0.0 0.05 0.48 0.48 98 1009.9
20260507160437 69 138 0.0 0.0 0.00 0.47 0.47 98 1010.2
20260507155932 68 146 0.0 0.0 0.00 0.47 0.47 98 1010.4
20260507155429 68 2 0.0 0.0 0.00 0.47 0.47 98 1010.4
20260507154926 68 3 0.0 0.0 0.00 0.47 0.47 98 1010.2
20260507154423 69 4 0.0 0.0 0.00 0.47 0.47 98 1010.3
20260507153920 69 5 0.0 0.0 0.00 0.47 0.47 98 1010.1
20260507153417 69 5 0.0 0.0 0.07 0.47 0.47 98 1009.7
20260507152913 69 8 0.0 0.0 0.07 0.47 0.47 98 1009.4
20260507152409 68 8 0.0 0.0 0.00 0.46 0.46 98 1009.5
20260507151906 68 8 0.0 0.0 0.00 0.46 0.46 98 1009.9
20260507151402 68 8 0.0 0.9 0.00 0.46 0.46 98 1009.9
20260507150859 68 327 0.0 0.0 0.00 0.46 0.46 98 1009.6
20260507150356 68 322 0.0 0.0 0.05 0.46 0.46 98 1010.2
20260507145852 68 144 0.0 0.0 0.12 0.46 0.46 98 1009.8
20260507145348 67 66 0.0 0.0 0.07 0.45 0.45 98 1010.0
20260507144845 67 168 0.0 0.0 0.05 0.44 0.44 98 1010.1
20260507144342 67 58 0.0 0.0 0.05 0.44 0.44 98 1010.0
20260507143839 67 50 0.0 0.0 0.07 0.43 0.43 98 1010.3
20260507143336 67 67 0.0 0.0 0.12 0.43 0.43 98 1010.2
20260507142832 67 139 0.0 0.0 0.05 0.42 0.42 98 1010.3
20260507142329 67 150 0.0 0.0 0.07 0.41 0.41 98 1010.4
20260507141826 67 280 0.0 0.9 0.07 0.41 0.41 98 1010.2
20260507141323 67 130 0.0 0.0 0.00 0.40 0.40 98 1010.4
20260507140819 67 147 0.0 0.9 0.00 0.40 0.40 98 1010.2
20260507140316 67 53 0.0 0.0 0.00 0.40 0.40 98 1010.3
20260507135814 67 48 0.0 0.0 0.05 0.40 0.40 98 1010.5
20260507135311 67 44 0.0 0.0 0.05 0.40 0.40 98 1010.4
20260507134808 67 44 0.0 0.0 0.00 0.39 0.39 98 1010.4
20260507134303 67 268 0.0 0.0 0.07 0.39 0.39 98 1010.8
20260507133759 67 243 0.0 0.0 0.12 0.39 0.39 98 1010.7
20260507133256 67 152 0.0 0.0 0.19 0.38 0.38 98 1010.7
20260507132754 67 292 0.0 0.0 0.31 0.38 0.38 98 1010.6
20260507132250 67 318 0.0 0.9 0.24 0.36 0.36 98 1010.8
20260507131747 67 48 0.0 0.0 0.12 0.33 0.33 98 1010.7
20260507131244 67 78 0.0 0.0 0.12 0.32 0.32 98 1010.6
20260507130741 67 9 0.0 0.0 0.05 0.31 0.31 98 1010.6
20260507130239 67 38 0.0 0.0 0.07 0.30 0.30 98 1010.6
20260507125737 66 103 0.0 0.0 0.07 0.30 0.30 98 1010.6
20260507125234 66 41 0.0 0.0 0.00 0.29 0.29 98 1010.6
20260507124731 66 145 0.0 0.0 0.00 0.29 0.29 98 1010.7
20260507124228 66 137 0.0 0.0 0.00 0.29 0.29 98 1010.6
20260507123726 66 64 0.0 0.0 0.00 0.29 0.29 98 1010.6
20260507123224 66 51 0.0 0.0 0.05 0.29 0.29 98 1010.6
20260507122718 66 117 0.0 0.0 0.05 0.29 0.29 98 1010.6
20260507122215 66 74 0.0 0.0 0.00 0.28 0.28 98 1010.6
20260507121710 66 77 0.0 0.0 0.00 0.28 0.28 98 1010.5
20260507121207 66 87 0.0 0.0 0.00 0.28 0.28 98 1010.2
20260507120703 66 92 0.0 0.0 0.07 0.28 0.28 98 1010.5
20260507120200 66 93 0.0 0.0 0.07 0.28 0.28 98 1010.6
20260507115656 66 96 0.0 0.0 0.00 0.27 0.27 98 1010.8
20260507115152 66 70 0.0 0.9 0.00 0.27 0.27 98 1010.7
20260507114648 66 92 0.0 0.0 0.00 0.27 0.27 98 1010.8
20260507114145 66 68 0.0 0.0 0.00 0.27 0.27 98 1010.8
20260507113642 66 81 0.0 0.0 0.00 0.27 0.27 98 1011.0
20260507113139 66 44 0.0 0.0 0.00 0.27 0.27 98 1010.8
20260507112637 66 41 0.0 0.0 0.00 0.27 0.27 98 1010.9
20260507112133 65 134 0.0 0.0 0.00 0.27 0.27 98 1010.9
20260507111631 65 124 0.0 0.0 0.00 0.27 0.27 98 1011.0
20260507111127 65 188 0.0 0.0 0.00 0.27 0.27 98 1011.0
20260507110624 65 339 0.0 0.9 0.00 0.27 0.27 98 1011.1
20260507110120 65 163 0.0 0.0 0.00 0.27 0.27 98 1011.0
20260507105617 65 42 0.0 0.0 0.00 0.27 0.27 98 1010.8
20260507105113 65 87 0.0 0.0 0.00 0.27 0.27 98 1010.7
20260507104611 65 183 0.0 0.0 0.00 0.27 0.27 98 1010.5
20260507104107 65 94 0.0 0.0 0.00 0.27 0.27 98 1010.4
20260507103603 65 102 0.0 0.0 0.00 0.27 0.27 98 1010.4
20260507103100 65 288 0.0 0.9 0.00 0.27 0.27 98 1010.6
20260507102556 65 141 0.0 0.0 0.05 0.27 0.27 98 1010.6
20260507102053 65 107 0.0 0.0 0.05 0.27 0.27 98 1010.6
20260507101548 65 107 0.0 0.0 0.00 0.26 0.26 98 1010.6
20260507101045 65 350 0.0 0.0 0.00 0.26 0.26 98 1010.5
20260507100542 65 26 0.0 0.0 0.00 0.26 0.26 98 1010.7
20260507100040 65 350 0.0 0.0 0.00 0.26 0.26 98 1010.5
20260507095538 65 350 0.0 0.0 0.00 0.26 0.26 98 1010.7
20260507095034 65 350 0.0 0.0 0.07 0.26 0.26 98 1010.7
20260507094531 64 350 0.0 0.0 0.07 0.26 0.26 98 1010.4
20260507094028 64 350 0.0 0.0 0.00 0.25 0.25 98 1010.4
20260507093525 64 351 0.0 0.0 0.00 0.25 0.25 98 1010.8
20260507093024 64 98 0.0 0.0 0.00 0.25 0.25 98 1010.7
20260507092520 64 103 0.0 0.0 0.00 0.25 0.25 98 1010.6
20260507092017 64 95 0.0 0.0 0.00 0.25 0.25 98 1010.5
20260507091513 64 89 0.0 0.0 0.00 0.25 0.25 98 1010.5
20260507091009 64 95 0.0 0.0 0.05 0.25 0.25 98 1010.6
20260507090505 64 95 0.0 0.0 0.05 0.25 0.25 98 1010.7
20260507090002 64 95 0.0 0.0 0.00 0.24 0.24 98 1010.6
20260507085459 64 95 0.0 0.0 0.07 0.24 0.24 98 1010.8
20260507084955 64 95 0.0 0.0 0.07 0.24 0.24 98 1010.8
20260507084453 64 95 0.0 0.0 0.00 0.23 0.23 98 1010.9
20260507083950 64 95 0.0 0.0 0.00 0.23 0.23 98 1011.1
20260507083446 64 95 0.0 0.0 0.00 0.23 0.23 98 1010.9
20260507082942 64 95 0.0 0.0 0.00 0.23 0.23 98 1011.3
20260507082438 64 95 0.0 0.0 0.00 0.23 0.23 98 1011.4
20260507081935 64 95 0.0 0.0 0.00 0.23 0.23 97 1011.7
20260507081431 64 95 0.0 0.0 0.07 0.23 0.23 97 1011.4
20260507080929 64 82 0.0 0.0 0.12 0.23 0.23 97 1011.5
20260507080425 64 83 0.0 0.0 0.05 0.22 0.22 97 1011.5
20260507075920 64 82 0.0 0.0 0.12 0.22 0.22 97 1011.2
20260507075416 64 82 0.0 0.9 0.12 0.21 0.21 97 1011.1
20260507074913 64 145 0.0 0.0 0.17 0.20 0.20 97 1010.7
20260507074410 64 153 0.0 0.0 0.19 0.19 0.19 97 1010.7
20260507073908 64 95 0.0 0.0 0.07 0.17 0.17 97 1011.4
20260507073404 64 95 0.0 0.0 0.00 0.16 0.16 97 1011.6
20260507072901 64 95 0.0 0.0 0.00 0.16 0.16 97 1012.0
20260507072358 64 96 0.0 0.0 0.05 0.16 0.16 97 1012.0
20260507071856 64 95 0.0 0.0 0.05 0.16 0.16 97 1012.0
20260507071353 64 95 0.0 0.0 0.05 0.16 0.16 97 1011.8
20260507070849 64 95 0.0 0.0 0.00 0.15 0.15 97 1011.8
20260507070347 64 95 0.0 0.0 0.00 0.15 0.15 97 1011.9
20260507065843 64 96 0.0 0.0 0.00 0.15 0.15 97 1011.6
20260507065340 64 9 0.0 0.0 0.00 0.15 0.15 97 1011.8
20260507064837 64 8 0.0 0.0 0.00 0.15 0.15 97 1012.0
20260507064335 64 8 0.0 0.0 0.00 0.15 0.15 97 1012.0
20260507063833 64 8 0.0 0.0 0.00 0.15 0.15 97 1012.2
20260507063330 65 53 0.0 0.0 0.00 0.15 0.15 97 1012.3
20260507062826 65 92 0.0 0.0 0.00 0.15 0.15 97 1012.4
20260507062323 65 52 0.0 0.0 0.00 0.15 0.15 97 1012.4
20260507061821 65 335 0.0 0.0 0.00 0.15 0.15 97 1012.6
20260507061319 65 335 0.0 0.0 0.00 0.15 0.15 97 1012.2
20260507060817 65 123 0.0 0.0 0.00 0.15 0.15 97 1012.3
20260507060314 65 123 0.0 0.0 0.00 0.15 0.15 97 1012.6
20260507055810 65 123 0.0 0.0 0.00 0.15 0.15 97 1012.8
20260507055306 65 47 0.0 0.0 0.00 0.15 0.15 97 1012.6
20260507054802 65 47 0.0 0.0 0.00 0.15 0.15 96 1012.8
20260507054258 65 47 0.0 0.0 0.00 0.15 0.15 96 1012.6
20260507053756 65 47 0.0 0.0 0.00 0.15 0.15 96 1012.9
20260507053253 65 47 0.0 0.0 0.00 0.15 0.15 96 1012.6
20260507052752 65 73 0.0 0.0 0.00 0.15 0.15 96 1011.6
20260507052248 65 187 0.0 0.0 0.00 0.15 0.15 96 1011.6
20260507051747 65 143 0.0 0.0 0.07 0.15 0.15 96 1011.8
20260507051243 65 92 0.0 0.0 0.19 0.15 0.15 96 1011.7
20260507050739 65 98 0.0 0.0 0.19 0.14 0.14 96 1011.8
20260507050237 65 54 0.0 0.9 0.26 0.13 0.13 96 1012.3
20260507045733 66 146 0.0 0.0 0.17 0.11 0.11 96 1013.5